Torna al catalogo

STARLINK-4447

AttivoComunicazioniSSO
NORAD 53472·PAYLOAD·🇺🇸 United States

Lanciato Aug 12, 2022 da Vandenberg Space Force Base

Loading…

Prossimi Passaggi (prossime 24 ore)

TLE

AggiornatoSource: CelesTrak SupGP

Epoca: Sep 14, 2026, 13:16 UTC

1 53472C 22099H   26257.55326389 -.00017553  00000+0 -10675-2 0  2576
2 53472  97.2860  11.6740 0001629  89.2575 204.4941 15.10545735    19

Traccia STARLINK-4447 in tempo reale con AllMySat

Download on the App Store